DLH7934 EDDN-EDDF

Flight info

Callsign DLH7934
Flight time 0h 26m
Altitude 22000
Route SUKAD1G SUKAD DCT PIWAW T159 SPESA SPESA5B
Aircraft A320/M-L/S

Departure

Time 2026-04-14 06:40
Airport Nuremberg Airport (EDDN)

Arrival

Time 2026-04-14 07:06
Airport Frankfurt Main Airport (EDDF)
Time Latitude Longitude Altitude Speed Heading
2026-04-14 06:29 49.49518 11.07791 1026 ft 0 kts 188°
2026-04-14 06:32 49.49525 11.07792 1026 ft 2 kts 188°
2026-04-14 06:32 49.49541 11.07796 1025 ft 2 kts 188°
2026-04-14 06:32 49.49557 11.07800 1027 ft 2 kts 188°
2026-04-14 06:32 49.49574 11.07803 1027 ft 2 kts 146°
2026-04-14 06:33 49.49584 11.07784 1026 ft 2 kts 102°
2026-04-14 06:33 49.49584 11.07781 1027 ft 0 kts 97°
2026-04-14 06:35 49.49583 11.07803 1025 ft 2 kts 97°
2026-04-14 06:35 49.49578 11.07860 1027 ft 11 kts 98°
2026-04-14 06:35 49.49559 11.08055 1028 ft 22 kts 97°
2026-04-14 06:36 49.49545 11.08253 1029 ft 22 kts 100°
2026-04-14 06:36 49.49583 11.08361 1032 ft 8 kts 28°
2026-04-14 06:36 49.49610 11.08432 1034 ft 12 kts 82°
2026-04-14 06:36 49.49603 11.08552 1035 ft 10 kts 97°
2026-04-14 06:37 49.49587 11.08712 1037 ft 21 kts 98°
2026-04-14 06:37 49.49563 11.08997 1039 ft 30 kts 97°
2026-04-14 06:37 49.49530 11.09291 1044 ft 23 kts 99°
2026-04-14 06:37 49.49589 11.09490 1049 ft 14 kts 55°
2026-04-14 06:38 49.49598 11.09509 1050 ft 0 kts 55°
2026-04-14 06:38 49.49610 11.09534 1051 ft 3 kts 51°
2026-04-14 06:39 49.49660 11.09572 1052 ft 7 kts 358°
2026-04-14 06:39 49.49694 11.09538 1052 ft 7 kts 304°
2026-04-14 06:39 49.49710 11.09436 1051 ft 1 kts 278°
2026-04-14 06:39 49.49718 11.09358 1049 ft 37 kts 279°
2026-04-14 06:40 49.49798 11.08555 1038 ft 111 kts 278°
2026-04-14 06:40 49.49942 11.07086 1037 ft 164 kts 279°
2026-04-14 06:40 49.50104 11.05321 1746 ft 164 kts 278°
2026-04-14 06:40 49.50271 11.03594 2711 ft 167 kts 281°
2026-04-14 06:41 49.50460 11.01714 3344 ft 189 kts 281°
2026-04-14 06:41 49.50674 10.99587 3907 ft 214 kts 281°
2026-04-14 06:41 49.50905 10.97241 4791 ft 226 kts 280°
2026-04-14 06:41 49.51138 10.94823 5873 ft 230 kts 278°
2026-04-14 06:42 49.51376 10.92366 6931 ft 234 kts 278°
2026-04-14 06:42 49.51617 10.89865 7933 ft 238 kts 278°
2026-04-14 06:42 49.51862 10.87331 8946 ft 241 kts 277°
2026-04-14 06:42 49.52111 10.84757 9949 ft 245 kts 277°
2026-04-14 06:43 49.52364 10.82139 10844 ft 250 kts 277°
2026-04-14 06:43 49.52622 10.79465 11709 ft 256 kts 277°
2026-04-14 06:43 49.52883 10.76728 12563 ft 262 kts 277°
2026-04-14 06:43 49.53150 10.73924 13427 ft 268 kts 277°
2026-04-14 06:44 49.53611 10.71119 14230 ft 276 kts 295°
2026-04-14 06:44 49.54571 10.68539 15027 ft 279 kts 300°
2026-04-14 06:44 49.55582 10.65962 15873 ft 282 kts 300°
2026-04-14 06:44 49.56606 10.63371 16704 ft 285 kts 300°
2026-04-14 06:45 49.57645 10.60743 17532 ft 289 kts 300°
2026-04-14 06:45 49.58694 10.58081 18358 ft 292 kts 300°
2026-04-14 06:45 49.59754 10.55383 19083 ft 295 kts 300°
2026-04-14 06:45 49.60820 10.52664 19847 ft 297 kts 300°
2026-04-14 06:46 49.62605 10.48105 21107 ft 300 kts 300°
2026-04-14 06:46 49.63685 10.45336 21814 ft 303 kts 300°
2026-04-14 06:46 49.65121 10.41643 22064 ft 304 kts 300°
2026-04-14 06:47 49.65877 10.39695 22100 ft 322 kts 299°
2026-04-14 06:47 49.67446 10.35640 22098 ft 337 kts 300°
2026-04-14 06:47 49.68247 10.33572 22097 ft 339 kts 300°
2026-04-14 06:47 49.69475 10.30399 22089 ft 340 kts 300°
2026-04-14 06:48 49.70671 10.27307 22091 ft 340 kts 300°
2026-04-14 06:48 49.71888 10.24161 21889 ft 342 kts 300°
2026-04-14 06:48 49.73103 10.21012 21446 ft 340 kts 299°
2026-04-14 06:48 49.74310 10.17879 21009 ft 338 kts 299°
2026-04-14 06:49 49.75511 10.14761 20575 ft 337 kts 299°
2026-04-14 06:49 49.76706 10.11654 20153 ft 336 kts 299°
2026-04-14 06:49 49.77900 10.08549 19723 ft 335 kts 299°
2026-04-14 06:49 49.79089 10.05455 19311 ft 334 kts 299°
2026-04-14 06:50 49.80274 10.02362 18900 ft 334 kts 299°
2026-04-14 06:50 49.81457 9.99276 18501 ft 333 kts 299°
2026-04-14 06:50 49.82639 9.96185 18053 ft 333 kts 299°
2026-04-14 06:50 49.83817 9.93098 17596 ft 333 kts 299°
2026-04-14 06:51 49.84969 9.90027 17143 ft 326 kts 295°
2026-04-14 06:51 49.85660 9.86743 16696 ft 318 kts 275°
2026-04-14 06:51 49.85762 9.83347 16259 ft 315 kts 269°
2026-04-14 06:51 49.85804 9.79961 15820 ft 313 kts 269°
2026-04-14 06:52 49.85842 9.76606 15404 ft 310 kts 269°
2026-04-14 06:52 49.85876 9.73267 14983 ft 309 kts 269°
2026-04-14 06:52 49.85911 9.69958 14570 ft 306 kts 269°
2026-04-14 06:52 49.85945 9.66676 14165 ft 304 kts 269°
2026-04-14 06:53 49.85976 9.63417 13741 ft 301 kts 269°
2026-04-14 06:53 49.86005 9.60154 13294 ft 303 kts 269°
2026-04-14 06:53 49.86036 9.56876 12843 ft 304 kts 270°
2026-04-14 06:53 49.86067 9.53596 12404 ft 305 kts 270°
2026-04-14 06:54 49.86097 9.50300 11967 ft 306 kts 270°
2026-04-14 06:54 49.86126 9.47005 11539 ft 306 kts 270°
2026-04-14 06:54 49.86154 9.43716 11116 ft 305 kts 270°
2026-04-14 06:54 49.86181 9.40434 10695 ft 303 kts 270°
2026-04-14 06:55 49.86207 9.37175 10281 ft 301 kts 270°
2026-04-14 06:55 49.86413 9.33998 10103 ft 291 kts 282°
2026-04-14 06:55 49.86968 9.31043 10111 ft 284 kts 286°
2026-04-14 06:55 49.87544 9.28131 10112 ft 283 kts 289°
2026-04-14 06:56 49.88566 9.25589 10078 ft 285 kts 314°
2026-04-14 06:56 49.90228 9.23943 9771 ft 286 kts 339°
2026-04-14 06:56 49.92126 9.23058 9451 ft 284 kts 343°
2026-04-14 06:56 49.94000 9.22293 9128 ft 271 kts 344°
2026-04-14 06:57 49.95790 9.21575 8818 ft 262 kts 344°
2026-04-14 06:57 49.97542 9.20871 8505 ft 259 kts 344°
2026-04-14 06:57 49.99276 9.20171 8199 ft 257 kts 344°
2026-04-14 06:57 50.00993 9.19450 7889 ft 254 kts 339°
2026-04-14 06:58 50.02536 9.18154 7597 ft 253 kts 326°
2026-04-14 06:58 50.03976 9.16626 7296 ft 249 kts 324°
2026-04-14 06:58 50.05343 9.15136 7092 ft 242 kts 324°
2026-04-14 06:58 50.06722 9.13625 6744 ft 243 kts 324°
2026-04-14 06:59 50.08074 9.12127 6389 ft 235 kts 324°
2026-04-14 06:59 50.09392 9.10647 6025 ft 232 kts 324°
2026-04-14 06:59 50.10670 9.09142 5662 ft 229 kts 316°
2026-04-14 06:59 50.11660 9.07212 5306 ft 228 kts 305°
2026-04-14 07:00 50.12536 9.05158 5125 ft 227 kts 304°
2026-04-14 07:00 50.13246 9.03337 5128 ft 228 kts 296°
2026-04-14 07:00 50.13638 9.00938 5137 ft 231 kts 274°
2026-04-14 07:00 50.13439 8.98635 5131 ft 234 kts 253°
2026-04-14 07:01 50.12895 8.96305 5137 ft 235 kts 251°
2026-04-14 07:01 50.12333 8.93918 5109 ft 236 kts 252°
2026-04-14 07:01 50.11770 8.91516 4870 ft 235 kts 252°
2026-04-14 07:01 50.11211 8.89135 4571 ft 234 kts 252°
2026-04-14 07:02 50.10653 8.86760 4254 ft 233 kts 252°
2026-04-14 07:02 50.10095 8.84387 3933 ft 234 kts 252°
2026-04-14 07:02 50.09536 8.82012 3608 ft 233 kts 253°
2026-04-14 07:02 50.08979 8.79650 3294 ft 231 kts 253°
2026-04-14 07:03 50.08435 8.77351 2981 ft 219 kts 253°
2026-04-14 07:03 50.07934 8.75235 2693 ft 199 kts 253°
2026-04-14 07:03 50.07509 8.73441 2462 ft 185 kts 254°
2026-04-14 07:03 50.07084 8.71646 2241 ft 170 kts 254°
2026-04-14 07:04 50.06726 8.70134 2029 ft 154 kts 254°
2026-04-14 07:04 50.06367 8.68607 1790 ft 148 kts 253°
2026-04-14 07:04 50.06020 8.67150 1585 ft 140 kts 253°
2026-04-14 07:04 50.05687 8.65746 1401 ft 137 kts 253°
2026-04-14 07:05 50.05360 8.64364 1207 ft 134 kts 252°
2026-04-14 07:05 50.05039 8.63011 1036 ft 132 kts 252°
2026-04-14 07:05 50.04721 8.61673 854 ft 132 kts 252°
2026-04-14 07:05 50.04406 8.60344 664 ft 130 kts 252°
2026-04-14 07:06 50.04097 8.59044 486 ft 127 kts 252°
2026-04-14 07:06 50.03808 8.57819 379 ft 111 kts 250°
2026-04-14 07:06 50.03624 8.57050 366 ft 59 kts 249°
2026-04-14 07:06 50.03486 8.56473 369 ft 49 kts 249°
2026-04-14 07:07 50.03375 8.56004 368 ft 45 kts 250°
2026-04-14 07:07 50.03309 8.55604 360 ft 37 kts 273°
2026-04-14 07:07 50.03336 8.55303 369 ft 0 kts 279°
2026-04-14 07:08 50.03336 8.55302 365 ft 1 kts 279°
2026-04-14 07:08 50.03348 8.55186 368 ft 16 kts 280°
2026-04-14 07:09 50.03368 8.55007 367 ft 18 kts 275°
2026-04-14 07:09 50.03335 8.54816 367 ft 14 kts 250°
2026-04-14 07:09 50.03298 8.54660 368 ft 13 kts 250°
2026-04-14 07:09 50.03283 8.54517 367 ft 15 kts 287°
2026-04-14 07:10 50.03334 8.54466 367 ft 0 kts 339°
2026-04-14 07:10 50.03335 8.54466 367 ft 0 kts 339°
2026-04-14 07:10 50.03339 8.54463 366 ft 1 kts 340°
2026-04-14 07:11 50.03345 8.54460 372 ft 0 kts 341°
2026-04-14 07:12 50.03360 8.54452 370 ft 5 kts 341°
2026-04-14 07:12 50.03399 8.54431 364 ft 8 kts 340°
2026-04-14 07:12 50.03473 8.54389 365 ft 14 kts 340°
2026-04-14 07:13 50.03568 8.54334 370 ft 14 kts 340°
2026-04-14 07:13 50.03618 8.54310 371 ft 7 kts 352°
2026-04-14 07:13 50.03659 8.54334 371 ft 6 kts 44°
2026-04-14 07:13 50.03677 8.54399 367 ft 7 kts 70°
2026-04-14 07:14 50.03693 8.54465 367 ft 6 kts 69°
2026-04-14 07:14 50.03708 8.54528 372 ft 6 kts 69°
2026-04-14 07:14 50.03723 8.54589 374 ft 6 kts 69°
2026-04-14 07:14 50.03737 8.54645 372 ft 5 kts 69°
2026-04-14 07:15 50.03750 8.54698 367 ft 5 kts 69°
2026-04-14 07:15 50.03764 8.54758 368 ft 8 kts 70°
2026-04-14 07:15 50.03785 8.54849 369 ft 9 kts 70°
2026-04-14 07:15 50.03811 8.54958 371 ft 12 kts 69°
2026-04-14 07:16 50.03841 8.55083 370 ft 12 kts 69°
2026-04-14 07:16 50.03870 8.55200 369 ft 11 kts 69°
2026-04-14 07:16 50.03895 8.55308 371 ft 10 kts 70°
2026-04-14 07:16 50.03922 8.55422 367 ft 13 kts 70°
2026-04-14 07:17 50.03953 8.55553 374 ft 14 kts 70°
2026-04-14 07:17 50.03999 8.55739 369 ft 21 kts 69°
2026-04-14 07:17 50.04052 8.55960 367 ft 23 kts 69°
2026-04-14 07:17 50.04109 8.56207 371 ft 25 kts 70°
2026-04-14 07:18 50.04174 8.56475 370 ft 27 kts 69°
2026-04-14 07:18 50.04208 8.56620 368 ft 12 kts 70°
2026-04-14 07:18 50.04236 8.56739 370 ft 11 kts 69°
2026-04-14 07:18 50.04289 8.56808 372 ft 10 kts 15°
2026-04-14 07:19 50.04359 8.56831 369 ft 11 kts 11°
2026-04-14 07:19 50.04449 8.56855 371 ft 15 kts 11°
2026-04-14 07:19 50.04556 8.56894 368 ft 15 kts 12°
2026-04-14 07:19 50.04605 8.56912 368 ft 7 kts 15°
2026-04-14 07:20 50.04648 8.56937 372 ft 7 kts 24°
2026-04-14 07:20 50.04722 8.56987 368 ft 14 kts 23°
2026-04-14 07:20 50.04814 8.57050 368 ft 8 kts 24°
2026-04-14 07:20 50.04831 8.57063 372 ft 5 kts 27°
2026-04-14 07:21 50.04841 8.57102 370 ft 4 kts 101°
2026-04-14 07:21 50.04826 8.57135 371 ft 5 kts 123°
2026-04-14 07:21 50.04812 8.57184 369 ft 5 kts 114°
2026-04-14 07:21 50.04812 8.57185 369 ft 0 kts 114°